Tracking 19709 objects as of 18-Jun-2019
HD Live streaming from Space Station
objects crossing your sky now

COSMOS 624

Track COSMOS 624 now!
10-day predictions
COSMOS 624 is classified as:


NORAD ID: 6992
Int'l Code: 1973-104H
Perigee: 1,357.9 km
Apogee: 1,492.0 km
Inclination: 74.0 °
Period: 114.2 minutes
Semi major axis: 7795 km
RCS: 0.676 m2 (medium)
Launch date: December 19, 1973
Source: Commonwealth of Independent States (former USSR) (CIS)
Launch site: PLESETSK MISSILE AND SPACE COMPLEX (PKMTR)
aabbcc
Your satellite tracking list
Your tracking list is empty




NASA's NSSDC Master Catalog

Two Line Element Set (TLE):
1  6992U 73104H   19169.50993207 -.00000006  00000-0  55259-4 0  9999
2  6992  74.0301  16.0650 0086031 163.9691 207.3472 12.61240974 94907
Source of the keplerian elements: AFSPC